Regional Weather Roundup
Issued by NWS

Home | Current Version | Previous Version | Text Only | Print | Product List | Glossary Off
Versions: 1 2 3 4 5 6 7 8 9 10 11 12 13 14 15 16 17 18 19 20 21 22 23 24 25 26 27 28 29 30 31 32 33 34 35 36 37 38 39 40 41 42 43 44 45 46 47 48 49 50

915
ASUS45 KTFX 250510
RWRMT
MONTANA REGIONAL WEATHER ROUNDUP
NATIONAL WEATHER SERVICE GREAT FALLS MT
1100 PM MDT MON JUL 24 2017

NOTE: "FAIR" INDICATES FEW OR NO CLOUDS BELOW 12000 FEET WITH NO
SIGNIFICANT WEATHER AND/OR OBSTRUCTIONS TO VISIBILITY.

MTZ001>007-043-250600-
WEST OF THE DIVIDE

CITY           SKY/WX    TMP DP  RH WIND       PRES   REMARKS
KALISPELL      PTCLDY    61  35  37 CALM      29.94R
MISSOULA       CLOUDY    71  34  25 N7        29.95R
BUTTE          CLOUDY    70  33  25 S9        30.10R
MULLAN PASS    MOCLDY    59  26  28 CALM      30.14R
ANACONDA         N/A     66  34  30 S7          N/A
DEER LODGE       N/A     68  34  28 CALM      30.05R
EUREKA           N/A     66  32  28 MISG      29.94R
HAMILTON         N/A     68  45  42 S3        29.98R
LIBBY            N/A     66  34  30 CALM      29.93R
PLAINS           N/A     69  31  24 CALM      29.95
$$

MTZ008-052>055-250600-
SOUTHWEST MONTANA

CITY           SKY/WX    TMP DP  RH WIND       PRES   REMARKS
BOZEMAN        MOCLDY    69  46  43 W3        30.00R
DILLON         CLOUDY    67  43  41 CALM      30.07S
W YELLOWSTONE  CLOUDY    54  48  82 CALM      30.20S
ENNIS          CLEAR     63  39  42 SE8       30.13S
THREE FORKS      N/A     72  47  40 CALM      29.99R
TWIN BRIDGES     N/A     71  45  39 E1        30.03
$$

MTZ009-010-012-014-046-048-049-054-250600-
EAST SLOPES AND CENTRAL MONTANA

CITY           SKY/WX    TMP DP  RH WIND       PRES   REMARKS
CUT BANK       PTCLDY    61  36  39 N12       30.04R
GREAT FALLS    PTCLDY    71  38  29 NE22G32   29.96R
MALMSTROM AFB  PTCLDY    69  38  32 NE17G24   29.96R
HELENA         PTCLDY    74  32  21 W9        29.96R
CHOTEAU          N/A     64  41  42 N8G17     30.05R
$$

MTZ011-013-016-021-045-047-050-051-250600-
NORTH CENTRAL MONTANA

CITY           SKY/WX    TMP DP  RH WIND       PRES   REMARKS
HAVRE          CLEAR     65  35  33 E8        29.98R
LEWISTOWN      PTCLDY    71  46  40 E9        29.97R
N BAR RANCH    CLOUDY    64  52  63 SW5       30.02S
CHINOOK          N/A     66  37  34 N6        29.96R
$$

MTZ017>020-022>027-061-062-250600-
NORTHEAST MONTANA

CITY           SKY/WX    TMP DP  RH WIND       PRES   REMARKS
GLASGOW        CLOUDY    70  41  34 N14       29.89R
JORDAN           N/A     74  43  32 NE3       29.89R
SIDNEY         CLOUDY    74  46  36 N5        29.86R
WOLF POINT     CLOUDY    73  44  35 N12       29.88R
MALTA          CLEAR     70  37  30 N14       29.93R
PLENTYWOOD       N/A     66  45  45 N10       29.89R
POPLAR           N/A     68  45  42 N5        29.88R
SCOBEY           N/A     57  38  49 CALM      29.92
$$

MTZ028>42-056>058-250600-
SOUTHCENTRAL AND SOUTHEAST MONTANA

CITY           SKY/WX    TMP DP  RH WIND       PRES   REMARKS
BAKER          CLOUDY    73  49  42 E7        29.89S
BILLINGS       CLOUDY    79  47  32 CALM      29.91R
LIVINGSTON     PTCLDY    79  41  25 SW17G25   29.98S
MILES CITY     CLOUDY    77  46  33 NE8       29.87R
BIG TIMBER     CLEAR     75  41  29 W14G21    30.00S
EKALAKA          N/A     78  49  36 NE12      29.90R
FORSYTH          N/A     79  48  34 NE5       29.85F
LAUREL           N/A     73  44  35 CALM      29.91R
$$

REGIONAL REPORTS...DAKOTAS

CITY           SKY/WX    TMP DP  RH WIND       PRES   REMARKS
WILLISTON      CLOUDY    72  48  42 N5        29.85S
MINOT          MOCLDY    72  58  61 W6        29.82S
DICKINSON      CLEAR     74  57  55 N9        29.86R
BEACH            N/A     68  50  52 CALM      29.92R
CROSBY           N/A     57  46  67 CALM      29.87R
TIOGA            N/A     61  48  63 E5        29.88F
WATFORD CITY     N/A     70  50  49 NE5       29.86R
BISMARCK       CLEAR     73  67  81 S10       29.83R
GRAND FORKS    PTCLDY    69  65  86 S10       29.86R
FARGO          CLOUDY    71  63  75 SE20G25   29.87F
BUFFALO SD       N/A     78  54  43 N10       29.83R
RAPID CITY     CLEAR     77  55  46 SE5       29.87R
$$

REGIONAL REPORTS...WYOMING/IDAHO/WASHINGTON

CITY           SKY/WX    TMP DP  RH WIND       PRES   REMARKS
GILLETTE       CLEAR     68  50  52 CALM      29.93F
SHERIDAN       PTCLDY    74  48  39 W7        29.97R
BUFFALO WY     PTCLDY    76  45  33 NW10      30.05R
CODY           PTCLDY    80  40  23 W13G21    30.02F
YELLOWSTONE LA   N/A     48  44  86 CALM      30.32R
IDAHO FALLS    CLOUDY    63  56  78 N6        30.02R
BOISE          CLOUDY    82  47  29 W8        29.86R
SPOKANE        PTCLDY    73  36  25 N6        29.94R
$$

REGIONAL REPORTS...ALBERTA

CITY           SKY/WX    TMP DP  RH WIND       PRES   REMARKS
EDMONTON       CLEAR     52  52 100 W7        29.95R
CALGARY        PTCLDY    57  43  58 W3        30.07R
LETHBRIDGE     CLEAR     57  43  58 N7        30.07R
MEDICINE HAT   CLEAR     59  43  55 N6        30.01R
CARDSTON         N/A     55  43  62 W2          N/A
MILK RIVER       N/A     57  45  62 N13         N/A
$$

REGIONAL REPORTS...SASKATCHEWAN

CITY           SKY/WX    TMP DP  RH WIND       PRES   REMARKS
SWIFT CURRENT  CLEAR     55  43  62 NW14      29.93R
REGINA         CLEAR     52  41  66 W9        29.84S
SASKATOON      MOCLDY    59  52  77 W22G33    29.72S
VAL MARIE        N/A     52  34  50 W3          N/A
$$




USA.gov is the U.S. government's official web portal to all federal, state and local government web resources and services.